Skip Page Navigation
NASA JPL Caltech
NASA Logo - Jet Propulsion Laboratory + View the NASA Portal
+ Center for Near-Earth Object Studies
JPL Home Earth Solar System Stars & Galaxies Technology
JPL Solar System Dynamics
BODIES ORBITS EPHEMERIDES TOOLS PHYSICAL DATA DISCOVERY FAQ SITE MAP
JPL Small-Body Database Browser
Search: [ help ]  
305337 (2008 AM107)
Classification: Main-belt Asteroid          SPK-ID: 2305337
Ephemeris | Orbit Diagram | Orbital Elements | Mission Design | Physical Parameters | Discovery Circumstances | Close-Approach Data ]

[ hide orbit diagram ]

For accurate long-term ephemerides, please instead use our Horizons system.This orbit viewer was implemented using two-body methods, and hence should not be used for determining accurate long-term trajectories (over several years or decades) or planetary encounter circumstances.


[ revert to old Java-based viewer ]

Orbital Elements at Epoch 2459000.5 (2020-May-31.0) TDB
Reference: JPL 9 (heliocentric ecliptic J2000)
 Element Value Uncertainty (1-sigma)   Units 
e .09061173851011622 7.2922e-08  
a 2.774943276954846 4.517e-08 au
q 2.523500842363009 2.2098e-07 au
i 3.632571125280036 6.3205e-06 deg
node 271.3023713090141 0.00012491 deg
peri 97.77174859565731 0.00013072 deg
M 342.0127159573478 4.0151e-05 deg
tp 2459084.861187420247
(2020-Aug-23.36118742)
0.00018911 TDB
period 1688.416516872393
4.62
4.1225e-05
1.129e-07
d
yr
n .213217530391648 5.2061e-09 deg/d
Q 3.026385711546684 4.9263e-08 au
  Orbit Determination Parameters
   # obs. used (total)      161  
   data-arc span      5611 days (15.36 yr)  
   first obs. used      2002-12-04  
   last obs. used      2018-04-15  
   planetary ephem.      DE431  
   SB-pert. ephem.      SB431-N16  
   condition code      0  
   norm. resid. RMS      .60567  
   source      ORB  
   producer      Otto Matic  
   solution date      2019-Jul-14 13:08:25  

Additional Information
 Earth MOID = 1.52588 au 
 Jupiter MOID = 2.42247 au 
 T_jup = 3.327 
[ show covariance matrix ]

Ephemeris | Orbit Diagram | Orbital Elements | Mission Design | Physical Parameters | Discovery Circumstances | Close-Approach Data ]

Physical Parameter Table
Parameter Symbol Value Units Sigma Reference Notes
absolute magnitude H 16.5   n/a MPO446455  

305337 (2008 AM107)          Discovered 2008-Jan-15 by Spacewatch at Kitt Peak
Reference: 20111110/Numbers.arcLast Updated: 2011-11-14

[ show close-approach data ]
Ephemeris | Orbit Diagram | Orbital Elements | Mission Design | Physical Parameters | Discovery Circumstances | Close-Approach Data ]
ABOUT SSD CREDITS/AWARDS PRIVACY/COPYRIGHT GLOSSARY LINKS
FirstGov 2020-Jul-16 14:53 UT
(server date/time)  
NASA Home Page
Site Manager:   Ryan S. Park
Webmaster  Alan B. Chamberlin